Weather History for KFSD - March, 2012

Change the Weather History Date:

Saturday, March 10, 2012

  Actual Average Record
Temperature  
Mean Temperature 56 °F 30 °F  
Max Temperature 72 °F 40 °F 72 °F (2012)
Min Temperature 39 °F 21 °F -18 °F (1948)
Degree Days  
Heating Degree Days 9 35  
Month to date heating degree days 296 366  
Since 1 July heating degree days 5296 6216  
Cooling Degree Days 0 0  
Month to date cooling degree days 0 0  
Year to date cooling degree days 0 0  
Growing Degree Days 5 (Base 50)    
Moisture  
Dew Point 25 °F    
Average Humidity 34    
Maximum Humidity 50    
Minimum Humidity 19    
Precipitation  
Precipitation 0.00 in 0.04 in 1.93 in (1956)
Month to date precipitation 0.02 0.38  
Year to date precipitation 3.20 1.54  
Snow  
Snow 0.00 in 0.30 in 18.10 in (1956)
Month to date snowfall 0.3 3.1  
Since 1 July snowfall 15.9 34.6  
Snow Depth 0.00 in    
Sea Level Pressure  
Sea Level Pressure 29.96 in    
Wind  
Wind Speed 14 mph (SSW)    
Max Wind Speed 24 mph    
Max Gust Speed 31 mph    
Visibility 10 miles    
Events      
T = Trace of Precipitation, MM = Missing Value Source: NWS Daily Summary

Daily Weather History Graph

Daily Weather History Graph

Search for Another Location

Airport or City:

Trip Planner

Search our weather history database for the weather conditions in past years. The results will help you decide how hot, cold, wet, or windy it might be!

Date:

Astronomy

Mar. 10, 2012 Rise Set
Actual Time 6:47 AM CST 6:27 PM CST
Civil Twilight 6:18 AM CST 6:56 PM CST
Nautical Twilight 5:45 AM CST 7:29 PM CST
Astronomical Twilight 5:11 AM CST 8:03 PM CST
Moon 9:50 PM CST (3/10) 7:36 AM CST (3/10)
Length of Visible Light 12h 37m
Length of Day
11h 40m
Waning Gibbous, 92% of the Moon is Illuminated
Mar 10
Waning Gibbous
Mar 14
Last Quarter
Mar 22
New
Mar 30
First Quarter
Apr 6
Full

Hourly Weather History & Observations

Time (CST) Temp. Windchill Dew Point Humidity Pressure Visibility Wind Dir Wind Speed Gust Speed Precip Events Conditions
12:56 AM 46.0 °F 40.6 °F 21.9 °F 39% 30.05 in 10.0 mi SSW 11.5 mph 21.9 mph N/A   Clear
1:56 AM 44.1 °F 37.7 °F 21.9 °F 42% 30.05 in 10.0 mi SSW 12.7 mph - N/A   Clear
2:56 AM 43.0 °F 36.4 °F 21.9 °F 43% 30.03 in 10.0 mi SSW 12.7 mph - N/A   Clear
3:56 AM 42.1 °F 35.2 °F 21.0 °F 43% 30.01 in 10.0 mi SSW 12.7 mph - N/A   Clear
4:56 AM 41.0 °F 33.9 °F 21.9 °F 47% 30.01 in 10.0 mi SSW 12.7 mph - N/A   Clear
5:56 AM 39.0 °F 31.4 °F 21.9 °F 50% 30.01 in 10.0 mi SSW 12.7 mph - N/A   Clear
6:56 AM 41.0 °F 34.3 °F 21.2 °F 45% 29.99 in 10.0 mi SSW 11.5 mph - N/A   Clear
7:56 AM 43.0 °F 36.4 °F 21.0 °F 42% 30.01 in 10.0 mi SSW 12.7 mph - N/A   Clear
8:56 AM 48.0 °F - 19.9 °F 33% 30.00 in 10.0 mi SSW 13.8 mph 20.7 mph N/A   Clear
9:56 AM 52.0 °F - 21.0 °F 30% 30.00 in 10.0 mi SW 12.7 mph 20.7 mph N/A   Clear
10:56 AM 57.0 °F - 24.1 °F 28% 29.99 in 10.0 mi SSW 15.0 mph 25.3 mph N/A   Clear
11:56 AM 62.1 °F - 26.1 °F 25% 29.97 in 10.0 mi SSW 16.1 mph 23.0 mph N/A   Clear
12:56 PM 66.0 °F - 25.0 °F 21% 29.95 in 10.0 mi SSW 17.3 mph 26.5 mph N/A   Clear
1:56 PM 68.0 °F - 25.0 °F 20% 29.92 in 10.0 mi SSW 16.1 mph 29.9 mph N/A   Clear
2:56 PM 70.0 °F - 26.1 °F 19% 29.90 in 10.0 mi SSW 21.9 mph 29.9 mph N/A   Clear
3:56 PM 71.1 °F - 26.1 °F 19% 29.88 in 10.0 mi SSW 17.3 mph 29.9 mph N/A   Clear
4:56 PM 71.1 °F - 28.9 °F 21% 29.88 in 10.0 mi SSW 12.7 mph 20.7 mph N/A   Clear
5:56 PM 66.0 °F - 32.0 °F 28% 29.89 in 10.0 mi SSW 15.0 mph - N/A   Clear
6:56 PM 61.0 °F - 30.0 °F 31% 29.91 in 10.0 mi SSW 13.8 mph 21.9 mph N/A   Clear
7:56 PM 57.0 °F - 30.9 °F 37% 29.92 in 10.0 mi SSW 9.2 mph - N/A   Clear
8:56 PM 54.0 °F - 30.0 °F 40% 29.92 in 10.0 mi South 12.7 mph - N/A   Clear
9:56 PM 54.0 °F - 28.0 °F 37% 29.93 in 10.0 mi South 16.1 mph 24.2 mph N/A   Clear
10:56 PM 52.0 °F - 27.0 °F 38% 29.94 in 10.0 mi SSW 17.3 mph 24.2 mph N/A   Clear
11:56 PM 51.1 °F - 27.0 °F 39% 29.93 in 10.0 mi SSW 12.7 mph 24.2 mph N/A   Clear